EW9744 Weather Reports


time (UTC)temp
F
wind
direction
speed
knots
gust
knots
rain 1hr
in
rain 24hr
in
rain mn
in
humidity
%
barometer
mb
20211017153035 47 278 1.7 0.0 0.00 0.00 0.00 88 1008.0
20211017153033 47 278 1.7 3.5 0.00 0.00 0.00 88 1008.0
20211017151532 47 270 2.6 0.0 0.00 0.00 0.00 88 1008.0
20211017151529 47 238 2.6 4.3 0.00 0.00 0.00 88 1008.2
20211017150036 47 238 2.6 0.0 0.00 0.00 0.00 88 1008.0
20211017150034 47 238 2.6 4.3 0.00 0.00 0.00 88 1008.2
20211017144525 46 205 1.7 7.0 0.00 0.00 0.00 88 1008.1
20211017143042 46 248 2.6 0.0 0.00 0.00 0.00 89 1008.0
20211017143039 46 248 2.6 4.3 0.00 0.00 0.00 89 1008.2
20211017141543 45 259 1.7 4.3 0.00 0.00 0.00 89 1008.3
20211017140028 45 296 3.5 0.0 0.00 0.00 0.00 90 1008.4
20211017134530 45 292 2.6 4.3 0.00 0.00 0.00 88 1008.4
20211017133036 45 292 2.6 0.0 0.00 0.00 0.00 88 1008.4
20211017131525 46 280 1.7 4.3 0.00 0.00 0.00 88 1008.4
20211017130031 46 280 1.7 0.0 0.00 0.00 0.00 88 1008.4
20211017124531 46 274 3.5 0.0 0.00 0.00 0.00 89 1008.4
20211017124529 46 274 3.5 5.2 0.00 0.00 0.00 89 1008.4
20211017123031 45 284 4.3 0.0 0.00 0.00 0.00 89 1008.4
20211017121526 45 281 3.5 0.0 0.00 0.00 0.00 89 1008.7
20211017121523 45 281 3.5 5.2 0.00 0.00 0.00 89 1008.8
20211017120033 45 270 2.6 5.2 0.00 0.00 0.00 89 1009.0
20211017114528 46 271 3.5 0.0 0.00 0.00 0.00 89 1009.1
20211017113034 46 273 2.6 0.0 0.00 0.00 0.00 89 1009.1
20211017111530 46 280 4.3 0.0 0.00 0.00 0.00 89 1009.4
20211017110033 45 272 4.3 6.1 0.00 0.00 0.00 89 1009.6
20211017104528 45 283 2.6 0.0 0.00 0.00 0.00 88 1009.8
20211017104526 45 283 2.6 6.1 0.00 0.00 0.00 88 1009.8
20211017103034 46 304 2.6 0.0 0.00 0.00 0.00 88 1009.8
20211017103032 46 304 2.6 4.3 0.00 0.00 0.00 88 1010.0
20211017101541 46 290 3.5 0.0 0.00 0.00 0.00 88 1010.1
20211017100039 46 283 3.5 6.1 0.00 0.00 0.00 88 1010.5
20211017094525 46 290 2.6 0.0 0.00 0.00 0.00 88 1010.5
20211017094523 46 285 3.5 5.2 0.00 0.00 0.00 89 1010.8
20211017093034 46 285 3.5 0.0 0.00 0.00 0.00 89 1010.5
20211017093032 46 285 3.5 5.2 0.00 0.00 0.00 89 1010.8
20211017091536 46 292 1.7 0.0 0.00 0.00 0.00 90 1010.9
20211017091533 46 292 2.6 4.3 0.00 0.00 0.00 89 1011.0
20211017090045 46 292 2.6 0.0 0.00 0.00 0.00 89 1010.9
20211017084528 46 292 2.6 0.0 0.00 0.00 0.00 89 1010.9
20211017083037 46 292 3.5 0.0 0.00 0.00 0.00 89 1011.2
20211017081530 46 287 2.6 0.0 0.00 0.00 0.00 89 1011.2
20211017080050 46 274 3.5 0.0 0.00 0.00 0.00 88 1011.6
20211017074530 47 280 2.6 0.0 0.00 0.00 0.00 88 1011.6
20211017073034 47 278 3.5 0.0 0.00 0.00 0.00 87 1011.6
20211017073032 47 278 3.5 4.3 0.00 0.00 0.00 87 1011.9
20211017071526 47 274 3.5 0.0 0.00 0.00 0.00 86 1011.9
20211017070047 48 276 1.7 0.0 0.00 0.00 0.00 86 1011.9
20211017070045 48 276 1.7 3.5 0.00 0.00 0.00 86 1012.2
20211017064542 48 274 0.9 0.0 0.00 0.00 0.00 86 1012.3
20211017063040 48 288 3.5 0.0 0.00 0.00 0.00 86 1012.3
20211017063038 48 288 3.5 6.1 0.00 0.00 0.00 86 1012.5
20211017061526 48 289 4.3 0.0 0.00 0.00 0.00 86 1012.6
20211017061524 48 289 4.3 6.1 0.00 0.00 0.00 86 1012.7
20211017060039 48 283 4.3 0.0 0.00 0.00 0.00 86 1012.6
20211017054537 48 281 4.3 0.0 0.00 0.00 0.00 86 1012.6
20211017053027 48 270 4.3 6.1 0.00 0.00 0.00 85 1012.7
20211017051530 48 285 3.5 5.2 0.00 0.00 0.00 85 1012.8
20211017051528 48 285 3.5 0.0 0.00 0.00 0.00 85 1012.6
20211017050037 48 292 2.6 0.0 0.00 0.00 0.00 85 1012.6
20211017050032 48 292 2.6 4.3 0.00 0.00 0.00 85 1012.9
20211017044529 49 292 3.5 4.3 0.00 0.00 0.00 85 1013.0
20211017043041 49 303 3.5 4.3 0.00 0.00 0.00 84 1013.1
20211017041529 49 313 3.5 5.2 0.00 0.00 0.00 83 1013.2
20211017040048 50 297 2.6 0.0 0.00 0.00 0.00 82 1013.0
20211017040046 50 297 2.6 5.2 0.00 0.00 0.00 82 1013.3
20211017034526 50 308 3.5 0.0 0.00 0.00 0.00 81 1013.4
20211017033044 51 300 3.5 0.0 0.00 0.00 0.00 81 1013.4
20211017033042 51 300 3.5 5.2 0.00 0.00 0.00 81 1013.5
20211017031529 51 290 4.3 0.0 0.00 0.00 0.00 80 1013.7
20211017031527 51 290 4.3 5.2 0.00 0.00 0.00 80 1013.7
20211017030037 52 293 2.6 4.3 0.00 0.00 0.00 79 1013.8
20211017024536 52 293 3.5 0.0 0.00 0.00 0.00 78 1013.7
20211017023041 52 282 4.3 0.0 0.00 0.00 0.00 77 1014.1
20211017021526 53 284 3.5 0.0 0.00 0.00 0.00 76 1014.1
20211017020038 54 282 4.3 0.0 0.00 0.00 0.00 75 1014.1
20211017020036 54 282 4.3 6.1 0.00 0.00 0.00 75 1014.2
20211017014530 55 279 5.2 7.8 0.00 0.00 0.00 74 1014.3
20211017013038 55 275 5.2 8.7 0.00 0.00 0.00 73 1014.4
20211017011531 56 277 4.3 0.0 0.00 0.00 0.00 72 1014.4
20211017011529 56 277 4.3 7.0 0.00 0.00 0.00 72 1014.6
20211017010046 58 285 3.5 0.0 0.00 0.00 0.00 68 1014.8
20211017010043 58 285 3.5 4.3 0.00 0.00 0.00 68 1014.7
20211017004532 61 279 2.6 0.0 0.00 0.00 0.00 62 1014.8
20211017004530 65 315 0.9 1.7 0.00 0.00 0.00 56 1015.1
20211017003040 65 315 0.9 0.0 0.00 0.00 0.00 56 1015.1
20211017003038 65 315 0.9 1.7 0.00 0.00 0.00 56 1015.1
20211017001527 68 324 0.0 0.0 0.00 0.00 0.00 54 1015.1
20211017001525 68 112 0.0 0.9 0.00 0.00 0.00 52 1015.5
20211017000037 68 112 0.0 0.9 0.00 0.00 0.00 52 1015.5
20211016234530 69 112 0.9 0.0 0.00 0.00 0.00 49 1015.5
20211016234528 69 106 0.9 4.3 0.00 0.00 0.00 48 1015.9
20211016233037 69 106 0.9 0.0 0.00 0.00 0.00 48 1015.8
20211016231527 68 71 0.0 2.6 0.00 0.00 0.00 49 1016.2
20211016230038 69 78 0.9 3.5 0.00 0.00 0.00 49 1016.4
20211016224527 70 105 1.7 0.0 0.00 0.00 0.00 49 1016.5
20211016224525 70 105 1.7 4.3 0.00 0.00 0.00 49 1016.6
20211016223033 69 86 1.7 5.2 0.00 0.00 0.00 49 1016.8
20211016221525 68 98 1.7 0.0 0.00 0.00 0.00 51 1016.9
20211016220052 68 91 2.6 0.0 0.00 0.00 0.00 51 1017.3
20211016214528 67 87 1.7 6.1 0.00 0.00 0.00 51 1017.5
20211016213040 66 78 1.7 0.0 0.00 0.00 0.00 53 1017.6
20211016211531 64 53 2.6 0.0 0.00 0.00 0.00 54 1017.6
20211016211528 63 44 2.6 6.1 0.00 0.00 0.00 55 1018.2
20211016210032 63 44 2.6 0.0 0.00 0.00 0.00 55 1018.0
20211016204532 63 39 2.6 0.0 0.00 0.00 0.00 57 1018.3
20211016203030 62 67 1.7 0.0 0.00 0.00 0.00 57 1018.7
20211016201537 62 58 2.6 0.0 0.00 0.00 0.00 58 1018.7
20211016201533 62 58 2.6 7.0 0.00 0.00 0.00 58 1018.9
20211016200033 62 63 2.6 0.0 0.00 0.00 0.00 59 1019.0
20211016200031 62 63 2.6 7.0 0.00 0.00 0.00 59 1019.2
20211016194526 63 87 2.6 0.0 0.00 0.00 0.00 59 1019.4
20211016193029 63 113 1.7 0.0 0.00 0.00 0.00 60 1019.4
20211016191529 62 123 0.9 0.0 0.00 0.00 0.00 61 1019.8
20211016190044 63 114 0.9 0.0 0.00 0.00 0.00 62 1019.8
20211016190042 63 114 0.9 3.5 0.00 0.00 0.00 62 1020.0
20211016184529 61 112 1.7 0.0 0.00 0.00 0.00 66 1020.1
20211016184527 59 116 0.9 3.5 0.00 0.00 0.00 69 1020.2
20211016183029 59 116 0.9 0.0 0.00 0.00 0.00 69 1020.1
20211016181536 57 137 0.9 0.0 0.00 0.00 0.00 74 1020.1
20211016181534 54 115 0.9 3.5 0.00 0.00 0.00 79 1020.5
20211016180033 54 115 0.9 0.0 0.00 0.00 0.00 79 1020.5
20211016174525 52 103 0.9 3.5 0.00 0.00 0.00 82 1020.5
20211016173040 51 95 1.7 0.0 0.00 0.00 0.00 86 1020.5
20211016171530 50 18 1.7 0.0 0.00 0.00 0.00 88 1020.5
20211016170023 50 33 0.9 3.5 0.00 0.00 0.00 90 1020.7
20211016170021 50 33 0.9 0.0 0.00 0.00 0.00 90 1020.5
20211016164527 49 98 1.7 0.0 0.00 0.00 0.00 93 1020.5
20211016164525 47 135 0.9 3.5 0.00 0.00 0.00 96 1020.7
20211016163039 47 135 0.9 0.0 0.00 0.00 0.00 96 1020.5
20211016161526 46 135 0.0 0.0 0.00 0.00 0.00 97 1020.8
20211016161524 46 135 0.0 2.6 0.00 0.00 0.00 97 1020.8
20211016160038 45 135 0.0 0.0 0.00 0.00 0.00 98 1020.8
20211016154527 44 289 0.0 0.0 0.00 0.00 0.00 98 1020.8